Погода в Хреновом

Россия / Воронежская область     51°07′07″N   40°17′02″E
темп.,
°C
ветер,
м/с
пор.,
м/с
влажн.,
%
обл.,
%
осадки,
мм/ч
давл.,
гПа
погр.,
м
6 марта, сб
сб600:00−2ссз2389100 0.0 1015109
03:00−3с239197 0.0 1016115
06:00−3ссв2289100 0.0 1015190
09:00−2ссв1282100 0.0 1016253
12:00−1ссз2375100 0.0 1016624
15:00−1ссз3474100 0.3 1015784
18:00−2сз5879100 0.6 1015791
21:00−4ссз6878100 0.7 1017776
7 марта, вс
вс700:00−5ссз698196 0.1 1018789
03:00−5зсз477366 0.1 1019588
06:00−6з49720 0.0 1019538
09:00−4зюз710600 0.0 1018928
12:00−2зюз8125478 0.0 10151279
15:000юз10154490 0.0 10111316
18:000юз91752100 0.0 10071465
21:00−1зюз101790100 0.1 10061118
8 марта, пн
пн800:00−1зюз91589100 0.6 1006964
03:00−1зюз71488100 1.4 1005866
06:00−1зюз8148899 0.1 1004913
09:00−1зюз91490100 0.4 10041166
12:00−1зсз10146290 0.9 10051590
15:00−3зсз9134664 0.9 10071459
18:00−5зсз8126819 0.0 10091160
21:00−6зсз6107137 0.0 1013851
9 марта, вт
вт900:00−6зсз48720 0.0 1013603
03:00−7з38740 0.0 1014435
06:00−7з37800 0.0 1015388
09:00−6з467643 0.0 1015636
12:00−4зсз5666100 0.0 10151088
15:00−4сз5669100 0.2 1016969
18:00−6сз5772100 0.1 1017972
21:00−8ссз5776100 0.2 1021828
10 марта, ср
ср1000:00−9сз467999 0.0 1022645
03:00−10зсз357981 0.0 1023468
06:00−10з36770 0.0 1023371
09:00−8зюз59680 0.0 1022537
12:00−4з695236 0.0 1021901
15:00−2з694663 0.0 10201219
18:00−3з4855100 0.0 1019554
21:00−4зсз386997 0.0 1020477